VJT402 LEBL-EGGW

Flight info

Callsign VJT402
Flight time N/A
Altitude 38000
Route NATPI DCT EVNAM/N0457F360 DCT TUPAR DCT DIKRO/N0456F350 DCT TELTU
Aircraft CL60/M-ICAO/HB1D1

Departure

Time 2026-04-29 20:27
Airport Josep Tarradellas Barcelona-El Prat Airport (LEBL)

Arrival

Time N/A
Airport London Luton Airport (EGGW)
Time Latitude Longitude Altitude Speed Heading
2026-04-29 19:55 41.30694 2.08930 19 ft 0 kts 65°
2026-04-29 20:19 41.30695 2.08938 19 ft 4 kts 90°
2026-04-29 20:19 41.30649 2.08977 19 ft 9 kts 175°
2026-04-29 20:19 41.30632 2.08983 19 ft 0 kts 139°
2026-04-29 20:20 41.30620 2.09016 18 ft 13 kts 112°
2026-04-29 20:20 41.30576 2.09050 18 ft 5 kts 205°
2026-04-29 20:21 41.30502 2.09007 18 ft 17 kts 198°
2026-04-29 20:21 41.30401 2.08944 16 ft 9 kts 246°
2026-04-29 20:22 41.30318 2.08902 17 ft 9 kts 206°
2026-04-29 20:22 41.30294 2.08836 18 ft 12 kts 246°
2026-04-29 20:22 41.30255 2.08720 17 ft 15 kts 245°
2026-04-29 20:22 41.30210 2.08591 19 ft 15 kts 245°
2026-04-29 20:23 41.30159 2.08447 19 ft 17 kts 245°
2026-04-29 20:23 41.30107 2.08299 22 ft 17 kts 246°
2026-04-29 20:23 41.30058 2.08148 25 ft 17 kts 246°
2026-04-29 20:23 41.30005 2.07989 25 ft 19 kts 245°
2026-04-29 20:24 41.29943 2.07816 24 ft 21 kts 244°
2026-04-29 20:24 41.29876 2.07624 22 ft 24 kts 246°
2026-04-29 20:24 41.29800 2.07404 18 ft 27 kts 249°
2026-04-29 20:24 41.29721 2.07168 19 ft 28 kts 246°
2026-04-29 20:25 41.29637 2.07067 20 ft 8 kts 154°
2026-04-29 20:25 41.29633 2.07070 20 ft 3 kts 150°
2026-04-29 20:25 41.29592 2.07093 19 ft 11 kts 157°
2026-04-29 20:25 41.29498 2.07154 16 ft 18 kts 134°
2026-04-29 20:26 41.29491 2.07215 16 ft 0 kts 66°
2026-04-29 20:26 41.29492 2.07217 16 ft 2 kts 66°
2026-04-29 20:26 41.29558 2.07415 16 ft 60 kts 64°
2026-04-29 20:27 41.29837 2.08226 21 ft 128 kts 64°
2026-04-29 20:27 41.30117 2.09033 79 ft 154 kts 66°
2026-04-29 20:27 41.30729 2.10852 671 ft 170 kts 67°
2026-04-29 20:27 41.31231 2.12304 1049 ft 170 kts 67°
2026-04-29 20:28 41.31711 2.13700 1303 ft 172 kts 67°
2026-04-29 20:28 41.32267 2.15331 1470 ft 213 kts 67°
2026-04-29 20:28 41.32925 2.17247 1884 ft 240 kts 66°
2026-04-29 20:28 41.33872 2.19182 2464 ft 260 kts 50°
2026-04-29 20:29 41.35097 2.21016 3145 ft 270 kts 49°
2026-04-29 20:29 41.36354 2.22890 3858 ft 275 kts 49°
2026-04-29 20:29 41.37643 2.24822 4595 ft 279 kts 50°
2026-04-29 20:29 41.38920 2.26747 5331 ft 283 kts 50°
2026-04-29 20:30 41.40236 2.28743 6093 ft 286 kts 50°
2026-04-29 20:30 41.41545 2.30740 6852 ft 290 kts 50°
2026-04-29 20:30 41.42868 2.32769 7616 ft 294 kts 49°
2026-04-29 20:30 41.44328 2.34738 8387 ft 300 kts 38°
2026-04-29 20:31 41.46167 2.36033 9139 ft 306 kts 17°
2026-04-29 20:31 41.48280 2.36401 9910 ft 311 kts 355°
2026-04-29 20:31 41.50368 2.35716 10678 ft 312 kts 332°
2026-04-29 20:31 41.52099 2.34029 11457 ft 310 kts 308°
2026-04-29 20:32 41.53302 2.31670 12259 ft 308 kts 298°
2026-04-29 20:32 41.54382 2.29220 13060 ft 308 kts 298°
2026-04-29 20:32 41.55470 2.26770 13863 ft 308 kts 298°
2026-04-29 20:32 41.56562 2.24311 14649 ft 307 kts 298°
2026-04-29 20:33 41.57642 2.21877 15411 ft 309 kts 298°
2026-04-29 20:33 41.58743 2.19396 16195 ft 312 kts 298°
2026-04-29 20:33 41.59848 2.16903 16973 ft 313 kts 298°
2026-04-29 20:33 41.60955 2.14405 17739 ft 313 kts 298°
2026-04-29 20:34 41.62052 2.11927 18486 ft 313 kts 298°
2026-04-29 20:34 41.63158 2.09428 19227 ft 312 kts 298°
2026-04-29 20:34 41.64375 2.07023 19940 ft 313 kts 312°
2026-04-29 20:34 41.66143 2.05280 20473 ft 321 kts 328°
2026-04-29 20:35 41.68125 2.03797 20879 ft 330 kts 329°
2026-04-29 20:35 41.70087 2.02320 21356 ft 336 kts 328°
2026-04-29 20:35 41.72135 2.00774 21895 ft 339 kts 328°
2026-04-29 20:35 41.74218 1.99201 22445 ft 342 kts 328°
2026-04-29 20:36 41.76291 1.97633 22952 ft 345 kts 328°
2026-04-29 20:36 41.78435 1.96010 23445 ft 349 kts 328°
2026-04-29 20:36 41.80545 1.94412 23988 ft 351 kts 328°
2026-04-29 20:36 41.82676 1.92796 24519 ft 353 kts 328°
2026-04-29 20:37 41.84857 1.91141 25040 ft 355 kts 328°
2026-04-29 20:37 41.87004 1.89509 25502 ft 358 kts 328°
2026-04-29 20:37 41.89173 1.87860 25943 ft 361 kts 328°
2026-04-29 20:37 41.91347 1.86206 26384 ft 363 kts 328°
2026-04-29 20:38 41.93587 1.84499 26823 ft 365 kts 328°
2026-04-29 20:38 41.95773 1.82832 27202 ft 369 kts 328°
2026-04-29 20:38 41.98004 1.81130 27620 ft 370 kts 328°
2026-04-29 20:38 42.00264 1.79404 28013 ft 373 kts 328°
2026-04-29 20:39 42.02513 1.77684 28370 ft 376 kts 328°
2026-04-29 20:39 42.04791 1.75941 28731 ft 378 kts 328°
2026-04-29 20:39 42.07093 1.74179 29088 ft 381 kts 328°
2026-04-29 20:39 42.09434 1.72384 29455 ft 382 kts 328°
2026-04-29 20:40 42.11753 1.70605 29812 ft 384 kts 328°
2026-04-29 20:40 42.14095 1.68808 30082 ft 387 kts 328°
2026-04-29 20:40 42.16446 1.67000 30384 ft 389 kts 328°
2026-04-29 20:40 42.18815 1.65179 30755 ft 389 kts 327°
2026-04-29 20:41 42.21141 1.63389 31119 ft 389 kts 327°
2026-04-29 20:41 42.23479 1.61587 31395 ft 392 kts 327°
2026-04-29 20:41 42.25888 1.59728 31603 ft 395 kts 327°
2026-04-29 20:41 42.28279 1.57883 31934 ft 395 kts 327°
2026-04-29 20:42 42.30665 1.56039 32211 ft 395 kts 327°
2026-04-29 20:42 42.33074 1.54177 32519 ft 395 kts 327°
2026-04-29 20:42 42.35449 1.52338 32775 ft 396 kts 327°
2026-04-29 20:42 42.37862 1.50469 32984 ft 398 kts 327°
2026-04-29 20:43 42.40260 1.48609 33220 ft 400 kts 327°
2026-04-29 20:43 42.42693 1.46721 33425 ft 401 kts 327°
2026-04-29 20:43 42.45093 1.44855 33561 ft 404 kts 327°
2026-04-29 20:43 42.47539 1.42955 33866 ft 403 kts 327°
2026-04-29 20:44 42.49958 1.41073 34125 ft 403 kts 327°
2026-04-29 20:44 42.52417 1.39157 34304 ft 403 kts 327°
2026-04-29 20:44 42.54839 1.37270 34543 ft 403 kts 327°
2026-04-29 20:44 42.57247 1.35390 34713 ft 403 kts 327°
2026-04-29 20:45 42.59700 1.33475 34921 ft 403 kts 326°
2026-04-29 20:45 42.62149 1.31560 35050 ft 404 kts 326°
2026-04-29 20:45 42.64587 1.29652 35228 ft 405 kts 326°
2026-04-29 20:45 42.67041 1.27730 35341 ft 406 kts 326°
2026-04-29 20:46 42.69526 1.25846 35543 ft 406 kts 330°
2026-04-29 20:46 42.72161 1.24339 35718 ft 409 kts 338°
2026-04-29 20:46 42.74910 1.23345 35897 ft 411 kts 346°
2026-04-29 20:46 42.77751 1.22836 36046 ft 413 kts 351°
2026-04-29 20:47 42.80613 1.22452 36181 ft 412 kts 351°
2026-04-29 20:47 42.83491 1.22061 36361 ft 411 kts 351°
2026-04-29 20:47 42.86307 1.21676 36511 ft 411 kts 351°
2026-04-29 20:47 42.89202 1.21281 36704 ft 411 kts 351°
2026-04-29 20:48 42.92021 1.20894 36853 ft 412 kts 351°
2026-04-29 20:48 42.94890 1.20501 36976 ft 412 kts 351°
2026-04-29 20:48 42.97773 1.20105 37131 ft 412 kts 351°
2026-04-29 20:48 43.00612 1.19714 37289 ft 413 kts 351°
2026-04-29 20:49 43.03503 1.19316 37396 ft 413 kts 351°
2026-04-29 20:49 43.06366 1.18921 37513 ft 413 kts 351°
2026-04-29 20:49 43.09224 1.18527 37662 ft 412 kts 351°
2026-04-29 20:49 43.12125 1.18126 37857 ft 411 kts 351°
2026-04-29 20:50 43.17837 1.17334 37924 ft 415 kts 351°
2026-04-29 20:50 43.23571 1.16537 37917 ft 420 kts 351°
2026-04-29 20:51 43.29337 1.15735 37930 ft 424 kts 352°
2026-04-29 20:51 43.35263 1.14909 37931 ft 428 kts 352°
2026-04-29 20:52 43.41231 1.14076 37930 ft 432 kts 351°
2026-04-29 20:52 43.47241 1.13235 37930 ft 437 kts 352°
2026-04-29 20:53 43.53268 1.12390 37923 ft 440 kts 351°
2026-04-29 20:53 43.59381 1.11351 37921 ft 443 kts 345°
2026-04-29 20:54 43.65111 1.08580 37923 ft 441 kts 333°
2026-04-29 20:54 43.67902 1.06902 37922 ft 443 kts 334°
2026-04-29 20:55 43.73585 1.03495 37909 ft 447 kts 334°
2026-04-29 20:55 43.79286 1.00073 37912 ft 449 kts 334°
2026-04-29 20:56 43.85088 0.96584 37916 ft 453 kts 334°
2026-04-29 20:56 43.90935 0.93061 37917 ft 455 kts 334°
2026-04-29 20:57 43.96723 0.89568 37910 ft 458 kts 334°
2026-04-29 20:57 44.02604 0.86012 37938 ft 459 kts 334°
2026-04-29 20:58 44.08479 0.82452 37928 ft 462 kts 334°
2026-04-29 20:58 44.14358 0.78882 37922 ft 463 kts 334°
2026-04-29 20:59 44.20327 0.75251 37942 ft 463 kts 334°
2026-04-29 20:59 44.26241 0.71644 37931 ft 464 kts 334°
2026-04-29 21:00 44.32208 0.67997 37920 ft 466 kts 334°
2026-04-29 21:00 44.38172 0.64345 37925 ft 466 kts 334°
2026-04-29 21:01 44.44088 0.60713 37922 ft 467 kts 334°
2026-04-29 21:01 44.50089 0.57022 37921 ft 468 kts 334°
2026-04-29 21:02 44.56060 0.53340 37923 ft 468 kts 334°
2026-04-29 21:02 44.61997 0.49671 37908 ft 469 kts 334°
2026-04-29 21:03 44.68006 0.45950 37918 ft 470 kts 334°
2026-04-29 21:03 44.73967 0.42250 37922 ft 471 kts 334°
2026-04-29 21:04 44.80016 0.38486 37929 ft 471 kts 334°
2026-04-29 21:04 44.86036 0.34733 37928 ft 472 kts 333°
2026-04-29 21:05 44.92044 0.30978 37919 ft 473 kts 333°
2026-04-29 21:05 44.98083 0.27194 37929 ft 474 kts 333°
2026-04-29 21:06 45.04149 0.23386 37933 ft 475 kts 334°
2026-04-29 21:06 45.10150 0.19609 37909 ft 476 kts 334°
2026-04-29 21:07 45.16265 0.15752 37927 ft 476 kts 334°
2026-04-29 21:07 45.22310 0.11929 37890 ft 476 kts 334°
2026-04-29 21:08 45.28374 0.08086 37904 ft 477 kts 334°
2026-04-29 21:08 45.34473 0.04211 37934 ft 477 kts 334°
2026-04-29 21:09 45.40577 0.00325 37919 ft 478 kts 333°
2026-04-29 21:09 45.46660 -0.03558 37922 ft 479 kts 334°
2026-04-29 21:10 45.52746 -0.07452 37900 ft 479 kts 334°
2026-04-29 21:10 45.58858 -0.11372 37888 ft 480 kts 334°
2026-04-29 21:11 45.64981 -0.15309 37909 ft 480 kts 334°
2026-04-29 21:11 45.71105 -0.19255 37928 ft 480 kts 334°
2026-04-29 21:12 45.77237 -0.23216 37933 ft 481 kts 334°
2026-04-29 21:12 45.83400 -0.27208 37924 ft 482 kts 334°
2026-04-29 21:13 45.89527 -0.31183 37921 ft 482 kts 334°
2026-04-29 21:13 45.95645 -0.35168 37897 ft 482 kts 334°
2026-04-29 21:14 46.01775 -0.39167 37899 ft 483 kts 334°
2026-04-29 21:14 46.07933 -0.43194 37880 ft 482 kts 334°
2026-04-29 21:15 46.14048 -0.47202 37912 ft 484 kts 334°
2026-04-29 21:15 46.20160 -0.51218 37933 ft 483 kts 334°
2026-04-29 21:16 46.26223 -0.55212 37941 ft 483 kts 334°
2026-04-29 21:16 46.32248 -0.59191 37877 ft 485 kts 334°
2026-04-29 21:17 46.38394 -0.63219 37944 ft 484 kts 336°
2026-04-29 21:17 46.44873 -0.65873 37941 ft 485 kts 350°
2026-04-29 21:18 46.51510 -0.66447 37888 ft 485 kts 358°
2026-04-29 21:18 46.58320 -0.66564 37907 ft 488 kts 358°
2026-04-29 21:19 46.65091 -0.66689 37930 ft 487 kts 358°
2026-04-29 21:19 46.71712 -0.66813 37943 ft 488 kts 358°
2026-04-29 21:20 46.78397 -0.66940 37932 ft 488 kts 358°
2026-04-29 21:20 46.85216 -0.67071 37934 ft 489 kts 358°
2026-04-29 21:21 46.92007 -0.67202 37918 ft 490 kts 358°
2026-04-29 21:21 46.98764 -0.67334 37936 ft 491 kts 358°
2026-04-29 21:22 47.05585 -0.67468 37948 ft 491 kts 358°
2026-04-29 21:22 47.12286 -0.67601 37923 ft 492 kts 358°
2026-04-29 21:23 47.19067 -0.67735 37934 ft 492 kts 358°
2026-04-29 21:23 47.25801 -0.67869 37956 ft 492 kts 358°
2026-04-29 21:24 47.32567 -0.68004 37938 ft 493 kts 358°
2026-04-29 21:24 47.39462 -0.68142 37947 ft 493 kts 358°
2026-04-29 21:25 47.46339 -0.68281 37975 ft 493 kts 358°
2026-04-29 21:25 47.53243 -0.68420 37951 ft 493 kts 358°
2026-04-29 21:26 47.60163 -0.68560 37989 ft 493 kts 358°
2026-04-29 21:26 47.67008 -0.68699 37982 ft 493 kts 358°
2026-04-29 21:27 47.73932 -0.68840 37982 ft 493 kts 358°
2026-04-29 21:27 47.80753 -0.68979 37995 ft 494 kts 358°
2026-04-29 21:28 47.87646 -0.69120 37965 ft 494 kts 358°
2026-04-29 21:28 47.93828 -0.69247 37967 ft 494 kts 358°